Powrót do katalogu

NAVSTAR 23

USA 71

LostNawigacjaMEO
NORAD 21552·PAYLOAD·🇺🇸 United States

Wystrzelony Jul 4, 1991 z Cape Canaveral Space Force Station

Loading…

Następne Przeloty (najbliższe 24 godziny)

TLE

NieaktualneSource: Space-Track

Epoka: Jul 31, 2026, 15:09 UTC

1 21552U 91047A   26212.63151373 -.00000083  00000-0  00000+0 0  9999
2 21552  56.5108 351.0023 0034397 135.6926 222.5436  1.91858479252234

Śledź NAVSTAR 23 w czasie rzeczywistym z AllMySat

Download on the App Store